Regional Weather Roundup
Issued by NWS

Home | Current Version | Previous Version | Text Only | Print | Product List | Glossary Off
Versions: 1 2 3 4 5 6 7 8 9 10 11 12 13 14 15 16 17 18 19 20 21 22 23 24 25 26 27 28

000
ASUS45 KGTF 041010
RWRMT
MONTANA HOURLY WEATHER ROUNDUP
NATIONAL WEATHER SERVICE GREAT FALLS MT
400 AM MDT MON MAY 04 2015

NOTE: "FAIR" INDICATES FEW OR NO CLOUDS BELOW 12000 FEET WITH NO
SIGNIFICANT WEATHER AND/OR OBSTRUCTIONS TO VISIBILITY.

MTZ001>007-043-041100-
WEST OF THE DIVIDE

CITY           SKY/WX    TMP DP  RH WIND       PRES   REMARKS
KALISPELL      SUNNY     31  26  82 SE3       29.91S
MISSOULA       CLEAR     36  24  62 CALM      29.94R
BUTTE          CLEAR     41  27  57 CALM      29.98S
DEER LODGE       N/A     34  25  69 CALM      30.00S
EUREKA           N/A     32  25  74 CALM      29.96S
HAMILTON         N/A     37  27  65 S5        29.93S
LIBBY            N/A     34  27  75 CALM      29.94S
$$

MTZ008-052>055-041100-
SOUTHWEST MONTANA

CITY           SKY/WX    TMP DP  RH WIND       PRES   REMARKS
BOZEMAN        CLEAR     41  31  67 CALM      29.97S
DILLON         CLEAR     41  29  62 S5        29.97R
$$

MTZ009-010-012-014-046-048-049-054-041100-
EAST SLOPES AND CENTRAL MONTANA

CITY           SKY/WX    TMP DP  RH WIND       PRES   REMARKS
CUT BANK       CLEAR     35  24  64 NE6       29.96F WCI  30
GREAT FALLS    CLEAR     41  30  65 CALM      29.95R
MALMSTROM AFB  CLEAR     39  33  78 SE3       29.95S
HELENA         MOCLDY    43  27  53 W3        29.96R
$$

MTZ011-013-016-021-045-047-050-051-041100-
NORTH CENTRAL MONTANA

CITY           SKY/WX    TMP DP  RH WIND       PRES   REMARKS
HAVRE          CLEAR     40  28  62 NE10      29.97F
LEWISTOWN      CLEAR     46  33  60 E6        29.98F
CHINOOK          N/A     39  28  65 E13       30.01F WCI  32
FORT BENTON      N/A     46  30  53 CALM      29.96S
$$

MTZ017>020-022>042-056>058-061-062-041100-
EASTERN PLAINS

CITY           SKY/WX    TMP DP  RH WIND       PRES   REMARKS
BAKER          MOCLDY    37  29  72 SE7       30.11R WCI  32
BILLINGS       PTCLDY    47  34  60 N6        29.99S
GLASGOW        CLEAR     39  24  55 E12       30.07S WCI  32
JORDAN           N/A     37  27  67 CALM      30.05S
LIVINGSTON     CLEAR     35  30  82 CALM      30.01S
MILES CITY     MOCLDY    47  29  49 E7        30.05S
SIDNEY         CLEAR     36  27  69 CALM      30.12S
WOLF POINT     CLEAR     32  24  72 NE6       30.10S WCI  26
BIG TIMBER       N/A     43  34  70 CALM      30.02S
FORSYTH          N/A     45  32  61 NE6       30.02S
PLENTYWOOD       N/A     39  21  48 NE6       30.11F
POPLAR           N/A     39  25  56 N5        30.11S
$$

REGIONAL REPORTS...DAKOTAS

CITY           SKY/WX    TMP DP  RH WIND       PRES   REMARKS
WILLISTON      CLEAR     34  23  64 CALM      30.12S
MINOT          CLEAR     36  26  67 SW7       30.13R WCI  30
DICKINSON      MOCLDY    38  26  62 E5        30.12R
BEACH          FAIR      34  28  80 SE6       30.13R WCI  29
CROSBY         FAIR      32  32 100 SW3       30.14R
WATFORD CITY   FAIR      32  25  74 CALM      30.12R
BISMARCK       MOCLDY    33  25  72 CALM      30.17R
GRAND FORKS    CLEAR     35  29  78 N3        30.13R
FARGO          CLEAR     38  25  59 N3        30.12R
BUFFALO SD       N/A     42  33  70 E8        30.05R
RAPID CITY     LGT RAIN  50  34  54 S9        30.14R
$$

REGIONAL REPORTS...WYOMING/IDAHO/WASHINGTON

CITY           SKY/WX    TMP DP  RH WIND       PRES   REMARKS
GILLETTE       CLOUDY    49  44  83 SE18      30.06R
SHERIDAN       PTCLDY    50  43  77 SE14G24   29.99S
BUFFALO WY     CLOUDY    49  42  77 SE15      30.06S
CODY           CLEAR     45  39  81 SW5       30.01S
YELLOWSTONE LA   N/A     28  26  92 CALM      30.12R
IDAHO FALLS    PTCLDY    43  40  89 N6        29.96S
SALMON         MOCLDY    39  30  70 CALM      29.94R
BOISE          CLEAR     54  32  43 CALM      29.84S
SPOKANE        CLEAR     45  31  58 NE5       29.87S
$$

REGIONAL REPORTS...ALBERTA

CITY           SKY/WX    TMP DP  RH WIND       PRES   REMARKS
EDMONTON       CLOUDY    36  32  87 NE5       30.01S
CALGARY        PTCLDY    36  27  69 S8        29.96F WCI  29
LETHBRIDGE     CLEAR     32  27  80 N6        29.96S WCI  26
MEDICINE HAT   CLEAR     41  28  60 E10       29.99F
$$

REGIONAL REPORTS...SASKATCHEWAN

CITY           SKY/WX    TMP DP  RH WIND       PRES   REMARKS
SWIFT CURRENT  CLEAR     34  30  86 SE12      30.08S WCI  25
REGINA         PTCLDY    32  30  93 E6        30.13R WCI  26
SASKATOON      CLEAR     30  28  93 SW7       30.12R WCI  23
$$



USA.gov is the U.S. government's official web portal to all federal, state and local government web resources and services.